Weather History for Tuxtla Gutierrez, Mexico

Change the Weather History Date:

Wednesday, October 31, 2012

  Actual Average Record
Temperature  
Mean Temperature 78 °F -  
Max Temperature 87 °F 75 °F 94 °F (2013)
Min Temperature 68 °F 63 °F 57 °F (2005)
Cooling Degree Days 12    
Growing Degree Days 28 (Base 50)    
Moisture  
Dew Point 65 °F    
Average Humidity 67    
Maximum Humidity 94    
Minimum Humidity 40    
Precipitation  
Precipitation 0.00 in - - ()
Sea Level Pressure  
Sea Level Pressure 29.96 in    
Wind  
Wind Speed 2 mph ()    
Max Wind Speed 13 mph    
Max Gust Speed -    
Visibility 8.4 miles    
Events      
Averages and records for this station are not official NWS values.
T = Trace of Precipitation, MM = Missing Value Source: Averaged Metar Reports

Daily Weather History Graph

Daily Weather History Graph

Search for Another Location

Airport:

Trip Planner

Search our weather history database for the weather conditions in past years. The results will help you decide how hot, cold, wet, or windy it might be!

Date:

Astronomy

Oct. 31, 2012 Rise Set
Actual Time 6:09 AM CST 5:41 PM CST
Civil Twilight 5:47 AM CST 6:03 PM CST
Nautical Twilight 5:21 AM CST 6:29 PM CST
Astronomical Twilight 4:56 AM CST 6:55 PM CST
Moon 7:09 PM CST (10/31) 7:35 AM CST (10/31)
Length of Visible Light 12h 16m
Length of Day
11h 32m
Full, 97% of the Moon is Illuminated
Oct 31
Full
Nov 6
Last Quarter
Nov 13
New
Nov 20
First Quarter
Nov 28
Full

Hourly Weather History & Observations

Time (CST) Temp. Heat Index Dew Point Humidity Pressure Visibility Wind Dir Wind Speed Gust Speed Precip Events Conditions
2:45 AM 70 °F - 67 °F 88% 29.94 in 9 mi SW 2.2 mph - -   Partly Cloudy
5:35 AM 69 °F - 67 °F 91% 29.94 in 9 mi SW 2.2 mph - -   Partly Cloudy
5:41 AM 66.2 °F - 64.4 °F 94% 29.95 in 6.0 mi Calm Calm - N/A   Overcast
6:52 AM 68.0 °F - 64.4 °F 88% 30.04 in 6.0 mi Calm Calm - N/A   Mostly Cloudy
7:46 AM 71.6 °F - 64.4 °F 78% 30.06 in 6.0 mi Calm Calm - N/A   Mostly Cloudy
8:36 AM 73 °F - 68 °F 80% 29.99 in 9 mi Calm Calm - -   Scattered Clouds
8:40 AM 73.4 °F - 64.4 °F 73% 29.99 in 6.0 mi Calm Calm - N/A   Mostly Cloudy
9:50 AM 77.0 °F - 64.4 °F 65% 30.07 in 7.0 mi ENE 4.6 mph - N/A   Mostly Cloudy
10:43 AM 80.6 °F 82.3 °F 64.4 °F 58% 30.06 in 7.0 mi Calm Calm - N/A   Mostly Cloudy
11:36 AM 82 °F - 67 °F 52% 29.94 in 9 mi Calm Calm - -   Scattered Clouds
11:48 AM 84.2 °F 85.6 °F 64.4 °F 51% 29.94 in 8.0 mi Calm Calm - N/A   Mostly Cloudy
12:40 PM 84.2 °F 85.6 °F 64.4 °F 51% 29.99 in 8.0 mi Calm Calm - N/A   Mostly Cloudy
1:42 PM 87.8 °F 87.6 °F 60.8 °F 40% 29.95 in 8.0 mi Calm Calm - N/A   Mostly Cloudy
2:36 PM 84 °F - 69 °F 52% 29.86 in 9 mi Calm Calm - -   Scattered Clouds
2:45 PM 86.0 °F 87.3 °F 64.4 °F 48% 29.83 in 7.0 mi NNW 5.8 mph - N/A   Mostly Cloudy
3:45 PM 84.2 °F 85.0 °F 62.6 °F 48% 29.91 in 7.0 mi NW 8.1 mph - N/A   Scattered Clouds
4:54 PM 78.8 °F - 62.6 °F 57% 29.94 in 10.0 mi WNW 12.7 mph - N/A   Mostly Cloudy
5:38 PM 78 °F - 69 °F 68% 29.86 in 9 mi Calm Calm - -   Partly Cloudy
5:49 PM 77.0 °F - 62.6 °F 61% 29.88 in 10.0 mi WNW 11.5 mph - N/A   Overcast
6:49 PM 75.2 °F - 60.8 °F 61% 29.98 in 10.0 mi NW 9.2 mph - N/A   Overcast
7:50 PM 75.2 °F - 62.6 °F 65% 30.01 in 10.0 mi WNW 9.2 mph - N/A   Overcast
8:36 PM 73 °F - 67 °F 78% 29.93 in 9 mi Calm Calm - -   Scattered Clouds
8:49 PM 73.4 °F - 62.6 °F 69% 29.95 in 10.0 mi WNW 3.5 mph - N/A   Overcast
9:49 PM 71.6 °F - 62.6 °F 73% 30.05 in 10.0 mi Calm Calm - N/A   Overcast
10:47 PM 69.8 °F - 62.6 °F 78% 30.05 in 10.0 mi Calm Calm - N/A   Mostly Cloudy
11:38 PM 71 °F - 65 °F 78% 29.94 in 9 mi Calm Calm - -   Partly Cloudy